This is the latest recevied weather packets stored in our database for station/object EA3ANS-1. If no packets are shown the sender has not sent any weather packets the latest 1 day(s).
| Time | Temp. | Humidity | Pressure | Rain* | Wind** | Luminosity | Snow |
|---|---|---|---|---|---|---|---|
| 1778019764 | 12.22° C | - | 1011.4 hPa | 0 mm | 0 m/s | - | - |
| 1778019161 | 12.22° C | - | 1011.5 hPa | 0 mm | 0 m/s | - | - |
| 1778018562 | 12.22° C | - | 1011.6 hPa | 0 mm | 0.45 m/s, 240° | - | - |
| 1778017962 | 12.78° C | - | 1011.6 hPa | 0 mm | 0 m/s | - | - |
| 1778017361 | 12.22° C | - | 1011.7 hPa | 0 mm | 0 m/s | - | - |
| 1778016764 | 12.22° C | - | 1011.6 hPa | 0 mm | 0 m/s | - | - |
| 1778016161 | 12.78° C | - | 1011.6 hPa | 0 mm | 0 m/s | - | - |
| 1778015562 | 12.78° C | - | 1011.6 hPa | 0 mm | 0 m/s | - | - |
| 1778014962 | 12.78° C | - | 1011.5 hPa | 0 mm | 0 m/s | - | - |
| 1778014365 | 12.78° C | - | 1011.5 hPa | 0 mm | 0 m/s | - | - |
| 1778013768 | 13.33° C | - | 1011.4 hPa | 0 mm | 0 m/s | - | - |
| 1778013170 | 12.78° C | - | 1011.2 hPa | 0 mm | 0 m/s | - | - |
| 1778012573 | 12.78° C | - | 1011.1 hPa | 0 mm | 0.45 m/s, 107° | - | - |
| 1778011961 | 12.78° C | - | 1011 hPa | 0 mm | 1.34 m/s, 122° | - | - |
| 1778011362 | 12.78° C | - | 1010.8 hPa | 0 mm | 1.34 m/s, 124° | - | - |
| 1778010762 | 13.33° C | - | 1010.6 hPa | 0 mm | 1.34 m/s, 111° | - | - |
| 1778010163 | 13.89° C | - | 1010.4 hPa | 0 mm | 0 m/s | - | - |
| 1778009562 | 13.89° C | - | 1010.3 hPa | 0 mm | 0 m/s | - | - |
| 1778008964 | 13.89° C | - | 1010 hPa | 0 mm | 0 m/s | - | - |
| 1778008367 | 13.89° C | - | 1010.1 hPa | 0 mm | 0.89 m/s, 309° | - | - |
| 1778007762 | 13.89° C | - | 1009.9 hPa | 0 mm | 1.34 m/s, 343° | - | - |
| 1778007163 | 13.89° C | - | 1010 hPa | 0.25 mm | 2.68 m/s, 347° | - | - |
| 1778006561 | 13.89° C | - | 1010.1 hPa | 0.25 mm | 0 m/s | - | - |
| 1778005961 | 13.89° C | - | 1010 hPa | 0.25 mm | 1.34 m/s, 58° | - | - |
| 1778005362 | 13.89° C | - | 1009.7 hPa | 0.25 mm | 0.45 m/s, 44° | - | - |
* Rain latest hour (hover to see other rain measurements)
** Current wind speed in m/s (hover to see current wind gust speed)